Vorticity
nan nan nan nan nan nan nan nan nan nan nan nan nan nan nan nan nan nan nan nan nan nan nan nan nan nan nan nan nan nan nan nan nan nan nan nan nan nan nan nan nan nan nan nan nan nan nan nan nan nan nan nan nan nan nan nan nan nan nan nan nan nan nan nan nan nan nan nan nan nan nan nan nan nan nan nan nan nan nan nan nan nan nan nan nan nan
nan 8 6 6 10 13 10 7 10 10 7 6 6 5 3 5 10 13 16 15 15 14 12 10 9 8 10 13 12 10 10 9 9 9 9 9 10 10 10 10 10 10 10 10 10 10 11 11 11 10 11 11 10 10 11 12 12 12 13 13 12 12 12 12 12 12 12 11 11 11 10 10 10 11 11 11 11 11 11 11 10 10 11 11 11 nan
nan 10 8 10 13 13 8 9 12 11 10 8 6 2 2 9 14 15 14 14 14 13 10 7 8 9 13 14 13 12 9 9 9 9 9 9 9 10 10 10 10 10 10 10 10 10 11 11 10 10 10 11 11 11 11 12 12 12 12 12 11 11 11 11 11 11 11 11 10 10 10 10 10 10 10 10 11 11 11 10 10 10 10 11 10 nan
nan 9 9 12 12 12 8 8 10 12 13 10 8 7 12 18 18 15 11 9 9 9 8 7 8 11 15 15 14 12 9 9 9 10 10 9 9 9 9 10 9 9 10 10 11 11 11 12 11 11 11 11 11 11 11 11 11 11 11 11 11 11 11 11 12 12 12 12 12 12 12 12 12 12 12 12 12 12 12 12 12 12 11 11 11 nan
nan 8 9 11 11 12 11 11 11 12 12 12 12 14 19 19 16 12 9 8 8 9 9 10 11 13 13 11 9 7 8 9 10 10 10 9 9 9 9 10 9 10 10 11 12 12 12 12 12 11 11 11 11 10 11 11 10 10 11 11 11 12 12 12 12 13 13 13 14 14 14 14 15 15 15 14 14 14 15 15 16 16 15 14 12 nan
nan 10 10 10 10 10 12 12 12 12 13 14 15 16 18 15 12 10 8 8 10 11 11 11 12 12 11 7 5 5 9 11 11 12 12 11 10 10 11 11 11 11 12 12 13 12 12 12 11 11 10 10 10 10 10 10 10 10 10 11 11 11 11 12 12 12 12 13 13 13 13 13 14 14 14 14 13 13 13 14 15 16 17 16 14 nan
nan 10 9 9 8 9 9 9 10 11 13 14 15 15 14 12 9 7 6 7 9 10 11 10 11 11 10 7 7 10 15 16 18 19 18 18 17 16 15 14 14 13 13 13 12 12 12 11 11 10 10 10 10 9 9 10 10 10 10 10 11 11 11 11 11 11 11 11 11 11 10 11 11 11 11 11 10 9 9 10 11 13 14 14 14 nan
nan 8 8 8 8 8 8 9 10 11 13 14 12 11 10 9 8 7 8 9 10 10 11 11 10 10 9 8 11 15 17 18 21 21 21 24 24 21 18 17 16 14 14 13 12 12 11 11 10 10 9 9 9 9 9 9 10 10 11 11 11 11 11 11 11 10 10 10 10 10 10 10 9 9 9 9 8 8 7 7 8 9 10 11 11 nan
nan 7 8 9 9 9 10 10 11 13 14 12 9 6 6 6 7 9 11 12 12 12 11 10 9 9 9 10 12 13 13 13 12 9 11 15 14 13 14 16 18 18 15 14 13 11 11 10 10 9 9 9 9 9 10 10 10 11 11 11 11 11 10 11 11 11 11 11 11 11 10 10 10 10 9 10 9 9 9 9 9 8 9 9 10 nan
nan 9 10 11 12 12 12 11 13 14 11 7 6 5 4 4 7 9 10 11 11 11 10 9 9 10 11 12 12 12 12 12 10 8 8 6 4 5 10 14 16 15 13 13 13 12 11 10 10 10 10 10 10 11 12 12 12 12 11 11 11 11 11 11 11 11 11 11 11 11 11 11 11 11 11 11 11 11 11 11 11 10 11 10 10 nan
nan 13 14 14 15 15 13 11 10 8 7 7 8 7 5 6 8 8 9 10 10 10 9 9 10 10 10 12 12 13 14 15 16 18 19 16 16 18 20 20 18 15 17 17 16 15 14 12 12 12 13 13 13 13 14 14 14 13 12 12 11 11 11 11 11 11 12 11 11 11 11 11 11 11 11 11 12 12 12 12 12 12 12 12 12 nan
nan 16 16 15 14 13 10 8 6 5 6 9 9 9 9 10 10 9 10 9 9 9 10 11 11 10 9 10 11 13 14 13 15 17 21 22 25 27 27 26 24 23 25 24 25 23 19 17 16 16 16 16 15 14 14 14 13 12 12 12 11 11 11 11 11 11 11 11 11 10 10 10 11 11 11 11 11 11 12 12 12 12 12 12 12 nan
nan 15 14 11 8 6 4 4 5 5 7 9 9 10 11 11 10 10 10 9 9 9 11 10 10 11 12 11 11 11 11 12 12 12 13 15 17 18 19 18 19 20 22 24 24 22 20 21 23 23 19 18 16 15 16 14 12 11 12 12 12 11 11 11 11 11 11 10 10 10 10 10 10 10 10 10 11 11 11 12 12 12 12 12 12 nan
nan 12 8 5 4 3 3 4 6 7 9 9 10 10 10 9 8 9 10 10 10 10 10 9 9 11 14 14 12 11 10 11 12 11 10 10 10 10 10 11 11 12 13 14 14 13 15 21 25 25 23 19 17 18 17 14 12 11 11 11 11 10 11 11 10 10 10 9 9 9 9 9 10 10 10 10 11 11 12 12 12 12 12 12 12 nan
nan 6 4 4 5 6 6 7 9 10 10 10 10 10 9 9 9 10 10 9 10 12 12 12 12 14 14 13 11 11 11 11 11 10 10 9 9 8 9 10 10 10 10 10 10 10 15 19 19 18 19 16 13 11 8 9 9 9 9 9 9 9 9 9 9 9 9 9 9 9 10 10 10 11 11 11 11 12 12 12 12 12 12 12 12 nan
nan 4 5 6 7 8 8 9 10 10 10 11 10 10 10 10 10 10 10 11 13 14 13 14 15 16 15 10 9 9 11 11 11 9 9 9 9 8 10 11 11 10 10 10 10 12 16 15 14 12 12 10 7 4 5 6 7 7 7 8 8 8 8 9 9 9 9 10 10 11 11 11 12 12 12 12 12 12 12 12 12 11 12 12 12 nan
nan 6 7 8 9 9 10 10 11 11 11 11 11 10 10 9 10 10 11 13 14 13 11 11 12 14 12 10 10 10 10 11 10 9 9 9 9 9 11 12 11 10 10 10 10 11 12 12 12 12 8 4 3 4 6 5 5 6 6 8 9 9 10 10 11 11 11 11 12 12 12 12 12 12 12 12 12 12 12 12 12 11 11 11 11 nan
nan 8 8 9 10 10 10 12 12 12 11 10 10 10 9 10 10 11 11 12 11 9 8 9 9 8 7 7 7 5 8 11 10 10 10 10 10 10 12 12 12 11 10 10 10 10 10 11 8 3 -3 -4 -0 3 5 6 7 8 9 10 11 11 12 12 12 12 12 12 12 12 12 12 12 12 12 12 13 13 12 12 12 12 12 12 12 nan
nan 8 9 10 11 10 10 11 10 9 9 8 8 9 10 12 12 13 12 11 9 7 7 7 7 7 7 4 2 2 7 11 11 10 10 10 10 10 12 13 12 11 10 10 11 11 11 10 7 2 -2 3 6 7 9 10 10 11 11 11 12 12 12 12 12 12 11 12 12 12 12 12 12 12 12 12 12 12 12 13 12 12 13 13 13 nan
nan 8 9 10 10 11 12 10 7 5 4 5 8 11 13 13 13 12 10 7 6 7 8 8 8 9 9 6 4 4 7 11 13 13 12 12 12 11 13 13 12 11 10 10 11 11 11 11 12 14 14 12 11 11 11 11 11 11 11 11 11 11 11 11 11 11 11 11 11 12 12 12 12 12 11 11 11 11 11 12 12 12 12 13 13 nan
nan 10 8 7 8 10 10 7 4 2 4 9 14 16 15 11 9 7 6 6 7 9 10 10 9 9 8 6 6 5 8 12 14 15 15 13 11 10 12 12 12 11 10 11 11 11 11 12 13 14 12 8 8 9 9 9 9 9 9 10 10 10 11 11 11 11 12 12 12 12 12 12 11 11 11 11 11 11 11 11 11 11 11 11 12 nan
nan 9 6 7 8 8 7 5 6 9 14 17 16 13 10 6 6 6 7 10 10 11 11 10 9 8 7 7 7 8 11 14 14 13 12 9 8 9 11 11 12 11 11 11 11 11 11 11 10 7 4 3 5 7 8 9 9 10 11 11 11 12 12 12 12 12 12 13 13 13 13 12 12 12 12 12 11 12 11 11 11 11 11 11 10 nan
nan 7 8 11 13 12 11 12 15 17 18 15 10 7 5 4 6 8 10 10 11 11 12 11 10 9 10 10 10 11 13 14 13 13 10 8 8 10 11 11 11 10 10 9 9 10 11 11 9 7 8 8 9 10 11 11 11 11 12 12 12 13 13 13 13 13 13 14 14 13 13 13 13 13 13 13 13 13 12 12 12 11 11 11 11 nan
nan 9 12 14 14 12 10 8 7 6 6 6 7 7 6 6 7 8 10 10 12 12 12 10 10 11 12 11 11 12 13 13 13 13 11 11 9 9 9 10 10 10 9 9 9 9 11 11 11 11 12 14 14 12 12 12 12 12 12 13 13 13 14 14 14 14 14 14 14 14 14 14 14 14 14 14 13 14 13 13 13 13 12 12 12 nan
nan 7 7 4 -0 -5 -8 -10 -10 -8 -4 2 7 9 9 9 11 13 13 13 13 12 10 9 10 12 12 13 14 14 13 12 13 13 11 10 9 8 9 10 11 11 10 9 10 10 11 11 11 11 11 14 14 14 14 13 13 13 13 13 14 14 14 14 14 13 13 13 13 13 13 13 13 13 13 13 13 14 13 12 13 13 13 13 13 nan
nan -3 -7 -10 -12 -13 -11 -8 -5 -4 0 5 6 7 8 12 15 15 14 13 12 10 9 10 11 11 11 13 13 12 11 11 13 13 10 8 8 9 10 10 11 10 10 10 10 10 9 10 10 11 11 14 17 18 16 16 15 14 14 13 13 13 12 12 12 12 12 12 12 12 12 12 12 12 12 13 12 12 12 13 12 12 13 14 19 nan
nan 2 -1 -1 0 3 6 8 8 8 10 9 5 4 8 13 14 13 12 11 10 10 10 10 11 11 12 11 10 9 8 11 12 12 11 10 10 11 9 9 10 10 11 11 10 9 9 11 12 12 13 14 17 18 17 16 15 15 14 12 12 12 11 11 11 12 12 12 12 13 13 13 13 13 13 13 13 12 12 12 12 13 15 21 29 nan
nan 11 9 10 11 12 14 15 16 16 16 12 10 12 18 18 14 12 11 10 10 10 10 9 10 11 11 10 8 8 9 11 12 11 13 14 12 9 7 8 10 11 14 13 12 11 14 16 15 14 14 12 12 14 16 16 17 18 17 15 13 14 14 14 13 13 14 14 13 14 14 14 13 13 13 13 13 13 12 11 12 16 25 30 31 nan
nan 11 12 14 16 18 20 22 21 19 16 15 17 21 24 21 15 12 10 10 10 10 9 9 10 10 9 9 10 11 13 12 11 10 13 15 12 8 7 8 10 11 14 15 16 17 19 17 15 14 11 9 10 12 14 18 22 24 23 21 20 20 18 16 15 14 14 14 14 14 14 14 14 13 13 13 13 13 13 11 14 22 32 31 24 nan
nan 15 18 20 22 23 25 25 22 20 17 17 20 24 24 19 14 11 10 10 11 10 9 9 10 10 9 11 14 16 16 11 9 8 12 14 12 8 7 8 9 11 13 15 16 16 15 15 13 11 9 10 11 12 13 16 20 22 22 24 26 24 20 17 16 16 16 15 15 14 14 14 14 14 14 14 14 14 13 13 16 21 26 22 17 nan
nan 17 19 19 21 22 22 21 20 19 19 20 23 24 21 16 13 11 11 11 11 10 10 9 9 9 10 12 13 13 12 6 4 6 11 15 11 7 7 10 10 11 12 11 10 9 12 14 12 9 9 11 12 12 11 12 14 15 15 19 21 20 17 17 18 19 20 19 18 17 16 16 15 15 14 14 14 14 13 14 15 16 15 14 12 nan
nan 16 15 15 16 17 17 16 16 16 17 19 20 19 16 13 12 11 11 11 11 11 10 9 9 9 10 9 8 7 5 1 0 4 11 14 11 8 8 10 9 10 11 9 7 6 9 8 7 7 10 12 13 13 12 12 12 12 11 13 14 14 14 18 21 23 24 22 22 21 20 18 17 16 15 15 15 15 14 15 14 11 7 11 12 nan
nan 13 11 12 13 13 13 12 11 11 13 14 13 13 13 13 12 12 11 11 11 11 10 9 9 10 11 10 9 7 3 1 -0 3 11 15 12 9 7 8 9 10 10 11 11 10 8 2 3 6 10 12 12 12 12 13 13 13 13 12 11 11 15 19 22 22 20 22 24 25 25 25 24 21 20 19 18 17 17 18 15 9 -1 4 9 nan
nan 11 11 12 12 12 10 9 10 10 11 11 10 11 12 12 12 12 12 12 11 11 10 10 9 10 10 12 11 8 5 3 1 4 12 15 12 8 6 8 10 10 12 12 12 13 9 4 4 6 9 10 11 12 13 13 14 15 14 12 10 10 14 16 17 16 15 18 21 22 25 28 28 27 26 24 22 20 18 18 16 10 0 -5 -2 nan
nan 11 12 12 12 11 10 10 11 11 11 11 11 11 11 11 11 11 12 11 11 10 10 9 9 9 9 9 9 7 6 4 3 5 11 14 11 8 9 10 10 10 10 10 11 12 9 7 6 6 6 8 11 13 13 12 13 14 13 11 10 10 10 11 12 12 13 15 15 16 18 20 23 24 25 21 17 15 14 14 15 13 9 -2 -7 nan
nan 11 12 12 11 11 10 11 11 11 12 12 11 10 10 10 10 10 11 11 10 10 9 9 9 8 7 7 6 5 5 4 4 6 9 11 9 9 9 9 8 8 9 9 9 9 7 8 8 8 8 10 12 13 11 10 10 11 11 11 11 11 11 10 11 11 12 12 12 12 12 12 14 16 16 13 13 13 14 15 16 17 16 10 3 nan
nan 11 11 11 11 11 11 11 12 11 11 11 10 9 9 9 8 9 10 10 9 9 9 10 11 9 5 3 3 3 2 1 1 3 6 9 10 10 8 7 7 8 9 9 8 8 7 8 9 11 13 13 10 7 5 7 9 11 11 11 12 12 12 13 13 13 12 11 9 8 8 9 11 12 13 17 21 25 27 29 29 26 23 23 18 nan
nan 10 11 11 11 11 11 11 11 10 10 9 9 8 8 8 7 9 11 10 10 10 10 12 12 11 9 7 5 2 1 0 2 4 9 11 11 10 8 7 8 10 9 9 8 8 7 8 9 11 13 11 8 4 4 7 9 9 10 11 12 13 13 14 14 13 12 10 9 8 9 11 13 13 14 21 25 28 31 34 34 33 33 36 34 nan
nan 10 10 10 10 11 10 10 10 10 9 8 8 8 9 10 11 13 13 12 12 12 10 10 10 12 15 16 14 11 10 12 13 14 16 14 12 10 9 8 9 10 11 11 10 9 8 8 8 7 7 7 8 9 10 9 8 7 9 13 15 16 14 12 11 12 11 11 11 12 15 15 14 13 13 16 16 17 19 21 24 26 29 32 37 nan
nan 10 10 10 11 10 9 9 9 9 9 9 10 12 13 14 15 14 14 14 13 13 13 14 14 13 15 17 18 18 18 18 16 16 18 15 12 9 9 9 9 10 12 12 11 10 9 8 7 6 7 7 6 7 7 7 5 3 7 13 13 10 8 9 11 13 14 13 13 13 13 12 11 11 12 11 11 12 12 12 13 16 18 18 22 nan
nan 10 11 11 11 11 10 10 9 9 9 11 13 14 13 13 13 13 13 13 14 14 15 16 16 14 14 15 16 17 19 17 15 15 15 13 10 8 8 8 9 10 11 11 11 10 9 8 8 9 10 9 8 8 8 6 4 5 11 12 8 4 5 10 14 16 15 12 12 10 8 9 11 13 13 12 13 12 10 7 7 8 12 13 13 nan
nan 11 11 10 10 10 10 9 9 11 12 13 13 12 11 11 10 9 9 10 11 11 12 13 12 12 13 14 16 18 20 19 17 15 13 14 13 10 8 8 8 9 10 11 11 10 9 9 10 10 10 10 10 11 9 7 9 11 13 10 7 10 17 19 17 14 11 10 10 10 12 14 15 14 14 14 14 14 13 9 7 6 8 11 11 nan
nan 11 10 10 10 9 9 11 13 14 14 13 12 11 11 10 9 8 9 9 9 9 10 12 11 11 11 11 13 15 18 17 15 14 15 15 14 13 12 10 8 8 8 9 10 11 11 12 12 12 11 11 10 9 7 8 10 12 12 9 10 14 15 12 9 8 9 11 12 13 14 14 13 13 14 15 15 16 16 17 18 17 13 11 11 nan
nan 11 10 11 11 11 12 13 13 12 11 11 11 10 10 9 9 10 11 10 9 10 12 12 12 12 12 10 10 12 14 15 16 18 19 15 13 11 12 13 12 11 8 8 8 9 12 14 13 12 13 12 12 10 9 9 9 10 9 9 10 10 5 1 2 6 10 12 12 11 10 10 11 12 15 16 17 17 17 18 20 21 19 15 13 nan
nan 10 10 11 11 11 10 10 10 10 10 11 10 10 10 10 11 12 11 9 10 11 11 12 13 13 11 10 11 12 12 13 16 19 19 18 16 16 16 16 16 15 14 11 9 8 8 9 10 11 13 13 12 10 9 8 9 9 9 10 11 12 9 6 6 8 9 9 9 8 8 10 12 15 16 15 16 16 16 15 14 15 17 16 14 nan
nan 9 10 11 10 9 9 10 11 11 11 10 10 11 11 12 12 11 10 10 11 11 11 12 12 10 7 8 10 11 10 10 11 13 15 16 18 20 19 16 14 13 13 12 11 9 7 5 5 7 10 13 13 13 11 10 10 9 9 10 12 13 13 12 11 10 9 8 8 6 7 12 15 16 13 12 14 16 17 17 16 15 14 14 14 nan
nan 9 10 10 10 10 10 11 11 10 10 10 10 11 11 11 11 10 11 11 12 11 11 12 11 9 7 8 8 8 7 8 9 10 11 12 13 15 16 15 14 13 12 12 11 11 10 8 6 6 6 9 11 13 13 12 10 8 8 9 11 11 12 12 11 11 11 9 6 4 8 15 17 15 12 13 15 16 17 17 18 17 15 14 13 nan
nan 10 10 10 10 10 10 10 10 9 9 10 10 10 10 9 8 10 12 12 12 12 12 11 11 10 10 10 9 8 7 8 10 10 10 11 12 13 13 14 14 15 14 14 14 16 16 15 13 10 8 7 7 8 9 10 10 9 9 10 11 11 11 10 10 11 11 8 6 6 13 16 15 13 13 13 14 13 13 15 17 18 17 15 14 nan
nan 10 10 10 10 10 10 9 9 9 9 9 10 10 9 8 10 15 15 12 13 12 12 10 9 10 10 10 10 9 10 12 12 11 11 11 11 11 10 11 12 13 15 17 19 21 23 25 25 21 14 8 5 4 6 7 8 9 10 11 11 11 11 10 10 10 10 8 9 13 16 16 13 13 12 9 9 9 12 15 16 17 18 16 15 nan
nan 11 11 11 10 10 9 9 9 9 9 9 10 10 10 11 13 15 14 13 12 12 10 10 10 10 9 9 9 10 11 13 12 11 11 11 10 10 9 10 10 12 14 15 16 18 22 27 30 32 26 15 8 3 4 5 7 8 10 11 11 11 11 10 10 9 8 10 13 15 16 16 14 14 12 9 9 10 13 15 14 15 15 15 14 nan
nan nan nan nan nan nan nan nan nan nan nan nan nan nan nan nan nan nan nan nan nan nan nan nan nan nan nan nan nan nan nan nan nan nan nan nan nan nan nan nan nan nan nan nan nan nan nan nan nan nan nan nan nan nan nan nan nan nan nan nan nan nan nan nan nan nan nan nan nan nan nan nan nan nan nan nan nan nan nan nan nan nan nan nan nan nan
CAPE
nan nan nan 1 1 nan nan nan nan nan nan nan nan nan nan 0 0 0 6 3 3 1 3 7 7 8 25 66 87 87 102 118 137 137 148 164 177 177 189 200 200 223 225 226 226 222 238 248 248 256 269 294 291 291 285 282 282 279 262 267 267 269 274 283 283 292 305 302 309 309 312 318 324 324 320 314 303 303 300 299 299 297 300 293 293 282
nan nan 0 0 0 nan nan nan nan nan nan nan nan nan nan nan 0 0 3 6 6 4 6 9 9 15 14 44 89 89 107 128 152 152 162 169 176 176 180 183 183 190 196 198 198 206 218 243 243 243 234 227 227 227 216 213 213 215 209 226 226 231 242 252 252 262 273 270 273 273 294 300 302 302 307 307 301 301 297 298 298 304 316 302 302 292
nan nan nan 0 0 nan nan nan nan nan nan nan nan nan nan 0 1 1 1 4 4 10 12 15 15 18 18 37 94 94 111 135 151 151 152 155 152 152 159 159 159 165 172 189 189 186 191 190 190 185 183 176 179 179 172 175 175 178 185 194 194 208 225 236 236 248 242 244 256 256 266 274 271 271 280 292 295 295 306 309 309 305 319 315 315 303
0 nan nan nan nan nan nan nan nan nan nan nan 0 0 1 1 1 1 3 5 5 17 20 19 19 14 13 25 71 71 108 122 134 134 131 131 132 132 135 137 137 142 147 148 148 150 147 148 148 154 151 156 155 155 165 174 174 176 181 194 194 212 226 233 233 238 241 248 250 250 260 251 244 244 253 263 293 293 301 314 314 301 305 306 306 316
3 nan nan nan nan nan nan nan nan nan nan nan nan nan 2 2 7 7 20 28 28 22 15 11 11 11 14 22 54 54 95 107 111 111 112 108 111 111 107 107 107 105 104 102 102 108 115 119 119 132 134 146 159 159 165 176 176 179 194 208 208 219 239 249 249 249 262 262 273 273 272 270 271 271 269 287 310 310 330 321 321 319 302 311 311 338
1 1 0 nan nan nan nan nan nan nan nan 0 0 0 2 8 26 26 31 29 29 16 15 15 15 14 13 11 38 38 73 84 85 85 87 83 82 82 79 80 80 81 84 91 91 97 105 110 110 115 130 139 159 159 173 187 187 192 202 215 215 227 245 263 263 274 276 268 283 283 279 290 292 292 301 307 325 325 337 340 340 330 309 314 314 337
3 3 2 0 0 nan nan nan nan nan nan 0 5 5 14 28 21 21 23 17 17 19 17 12 12 9 7 10 30 30 47 52 52 52 53 58 63 63 68 74 74 80 86 93 93 100 107 110 110 117 132 152 168 168 176 192 192 198 215 220 220 235 243 250 250 256 262 252 252 252 255 265 277 277 284 284 300 300 313 315 315 313 300 308 308 319
4 3 3 1 1 0 nan 1 1 1 3 6 18 18 21 19 13 13 19 20 20 12 3 0 0 nan nan nan nan nan nan nan 0 0 7 18 39 39 54 72 72 86 94 97 97 105 109 122 122 133 142 155 164 164 171 167 167 165 160 161 161 161 168 175 175 176 173 174 176 176 175 182 187 187 190 191 194 194 204 212 212 228 251 270 270 285
6 3 1 3 3 0 0 2 2 2 16 33 30 30 24 11 5 5 5 3 3 3 0 nan nan nan nan nan nan nan 3 8 4 4 7 2 5 5 36 64 64 80 96 100 100 104 110 115 115 125 132 136 140 140 140 134 134 129 126 126 126 130 133 138 138 149 150 155 163 163 167 168 176 176 176 172 173 173 173 183 183 201 222 255 255 274
9 5 0 1 1 2 1 12 21 21 52 45 39 39 21 5 3 3 1 nan nan nan nan nan nan nan nan nan nan nan 2 9 40 40 63 44 70 70 56 51 51 53 87 95 95 100 104 104 104 108 104 112 112 112 110 102 102 102 106 102 102 113 115 125 125 135 143 148 155 155 164 169 168 168 173 170 168 168 165 171 171 179 207 229 229 253
4 3 0 1 1 1 4 21 30 30 30 19 7 7 2 3 3 3 0 nan nan nan nan nan nan 0 0 nan nan nan 1 nan 3 3 26 40 52 52 56 56 56 62 76 77 77 76 79 80 80 82 86 89 90 90 87 81 81 87 89 96 96 102 105 114 114 124 133 142 147 147 160 165 176 176 176 169 167 167 165 166 166 176 196 222 222 240
2 1 1 0 0 6 20 17 10 10 5 3 0 0 0 2 5 5 1 0 0 nan nan 0 0 0 nan nan 1 1 1 nan 1 1 2 6 17 17 19 19 19 28 37 41 41 45 56 62 62 67 67 69 78 78 76 69 69 81 83 90 90 95 98 108 108 114 128 143 156 156 163 173 178 178 177 182 176 176 168 171 171 178 199 223 223 239
1 nan 0 28 28 31 11 2 0 0 1 1 0 0 0 0 1 1 2 0 0 0 nan nan nan nan nan 0 2 2 2 0 0 0 5 4 4 4 3 3 3 5 5 4 4 3 27 51 51 56 62 61 66 66 71 68 68 74 78 88 88 93 102 109 109 121 144 160 172 172 175 181 180 180 186 187 187 187 180 180 180 189 213 227 227 239
3 7 24 15 15 3 0 0 2 2 0 0 nan nan 0 0 1 1 2 1 1 1 0 nan nan nan 0 2 5 5 2 4 5 5 8 6 7 7 4 2 2 3 2 1 1 4 21 28 28 21 46 49 53 53 56 66 66 78 82 90 90 100 114 126 126 144 162 181 182 182 184 180 191 191 197 196 197 197 193 196 196 203 213 229 229 240
8 19 6 1 1 nan 1 1 0 0 0 nan 0 0 0 1 2 2 0 1 1 2 2 4 4 3 4 0 3 3 2 2 5 5 7 5 7 7 4 3 3 2 3 4 4 5 22 18 18 8 12 23 27 27 42 55 55 84 90 104 104 114 127 143 143 156 164 172 171 171 177 177 185 185 190 192 195 195 196 198 198 201 218 219 219 229
8 2 nan 0 0 0 1 0 nan nan nan nan 0 0 2 1 0 0 nan nan nan 2 3 9 9 6 4 4 4 4 1 0 3 3 4 3 4 4 4 2 2 4 4 5 5 4 7 6 6 7 10 28 51 51 60 73 73 89 98 110 110 121 129 141 141 147 156 160 164 164 163 170 174 174 180 182 187 187 186 189 189 199 208 206 206 210
0 0 nan nan nan 0 1 nan nan nan nan 0 1 1 2 1 0 0 3 6 6 5 8 14 14 6 3 3 1 1 1 0 1 1 3 5 4 4 5 1 1 5 4 2 2 1 2 4 4 6 10 37 59 59 67 77 77 91 98 106 106 114 121 128 128 134 143 147 152 152 160 162 167 167 173 175 175 175 173 179 179 190 198 197 197 202
3 2 1 nan nan nan nan nan nan nan 1 1 1 1 0 3 3 3 nan 1 1 12 14 10 10 1 2 2 0 0 2 nan 0 0 0 3 2 2 5 2 2 1 1 2 2 3 4 4 4 6 17 60 69 69 72 84 84 90 97 101 101 107 112 119 119 129 139 144 157 157 161 165 172 172 173 176 177 177 180 182 182 193 205 204 204 207
7 3 0 nan nan nan nan nan 0 0 2 1 2 2 5 7 6 6 4 1 1 6 11 1 1 2 3 2 0 0 1 nan nan nan 3 3 4 4 4 3 3 3 2 4 4 4 4 8 8 28 49 66 71 71 77 84 84 90 98 100 100 105 111 121 121 132 138 146 153 153 161 164 166 166 173 175 181 181 179 189 189 203 210 214 214 215
5 1 nan nan nan nan 0 1 3 3 6 6 5 5 5 2 4 4 6 6 6 2 5 1 1 3 3 2 1 1 1 0 2 2 2 4 5 5 2 2 2 4 1 2 2 3 5 11 11 20 46 61 71 71 77 86 86 93 96 101 101 108 114 120 120 129 138 145 147 147 153 150 157 157 159 162 169 169 174 186 186 191 198 214 214 216
5 1 0 nan nan 0 1 3 5 5 14 17 3 3 3 6 9 9 7 6 6 4 5 7 7 9 7 5 2 2 4 0 2 2 nan 3 3 3 1 2 2 3 3 3 3 5 8 10 10 12 29 55 68 68 76 80 80 88 93 94 94 101 108 116 116 120 126 133 138 138 140 142 145 145 148 151 154 154 157 163 163 170 180 188 188 201
2 0 nan 0 0 1 6 4 13 13 20 4 5 5 9 6 7 7 10 5 5 7 11 12 12 8 7 3 2 2 5 3 2 2 1 3 4 4 1 1 1 2 4 3 3 5 8 6 6 5 25 56 63 63 68 77 77 84 91 92 92 98 102 106 106 113 120 125 127 127 126 134 138 138 141 144 143 143 143 145 145 151 156 161 161 162
1 0 0 4 4 3 4 6 14 14 23 10 9 9 19 6 7 7 9 13 13 10 12 9 9 8 8 6 4 4 4 2 1 1 1 1 1 1 1 1 1 1 2 1 1 2 4 2 2 1 20 56 57 57 66 72 72 79 84 90 90 91 95 99 99 104 107 113 120 120 127 132 137 137 144 142 144 144 143 145 145 144 144 148 148 144
4 5 6 9 9 8 5 7 10 10 12 13 12 12 20 15 15 15 16 14 14 12 7 6 6 8 12 7 3 3 4 1 nan nan nan 2 3 3 0 1 1 1 1 0 0 0 1 2 2 4 13 44 54 54 62 67 67 75 77 83 83 80 86 90 90 95 102 112 116 116 127 133 139 139 142 144 139 139 138 138 138 141 143 143 143 140
4 7 13 22 22 40 40 37 35 35 16 11 14 14 26 31 31 31 19 13 13 7 6 7 7 7 9 10 2 2 2 1 nan nan 1 3 1 1 0 2 2 2 0 0 0 nan nan 1 1 2 4 22 42 42 53 59 59 63 68 70 70 75 79 84 84 88 92 97 109 109 109 119 117 117 121 121 113 113 120 121 121 129 131 130 130 132
26 27 42 74 74 112 106 84 62 62 42 20 16 16 16 23 22 22 13 11 11 6 5 3 3 5 5 2 0 0 1 4 2 2 1 0 2 2 1 5 5 2 1 1 1 2 nan nan nan nan 1 7 34 34 41 48 48 55 59 62 62 63 65 72 72 72 74 78 83 83 87 87 91 91 92 91 94 94 96 103 103 106 109 109 109 115
76 101 131 123 123 95 68 56 63 63 76 58 24 24 17 15 13 13 12 7 7 5 0 2 2 4 4 1 1 1 2 3 2 2 1 1 2 2 3 3 3 2 2 1 1 0 4 3 3 2 2 1 11 11 30 38 38 45 47 49 49 52 52 54 54 55 58 62 66 66 72 78 83 83 86 92 89 89 95 97 97 96 97 90 90 100
97 103 78 52 52 40 38 44 51 51 55 60 69 69 38 15 9 9 11 7 7 3 0 3 3 5 5 0 1 1 1 3 1 1 1 2 3 3 2 0 0 1 1 0 0 6 18 8 8 3 1 0 2 2 16 29 29 34 35 36 36 37 41 39 39 44 46 48 50 50 55 61 69 69 72 76 86 86 90 94 94 98 94 77 77 49
66 44 28 26 26 27 31 38 44 44 48 52 61 61 42 13 7 7 9 7 7 3 3 4 4 3 5 3 1 1 0 1 1 1 1 3 5 5 1 0 0 3 1 2 2 4 6 3 3 0 0 1 0 0 5 17 17 18 24 27 27 30 31 35 35 39 39 45 47 47 51 57 60 60 64 69 76 76 84 87 87 90 82 73 73 52
15 11 13 18 18 23 27 19 31 31 43 49 54 54 39 11 8 8 7 5 5 5 4 6 6 4 2 4 3 3 0 nan nan nan nan 1 1 1 1 0 0 3 2 5 5 1 nan 0 0 nan nan 2 0 0 nan 4 4 4 10 22 22 22 24 29 29 35 41 46 50 50 53 59 63 63 63 68 73 73 78 81 81 74 56 52 52 60
0 1 2 7 7 10 9 7 18 18 36 43 41 41 29 8 6 6 3 4 4 4 2 3 3 2 3 3 3 3 nan nan nan nan nan 2 3 3 4 1 1 2 2 2 2 1 0 nan nan nan 0 0 0 0 nan 0 0 0 0 3 3 10 18 21 21 29 38 41 46 46 49 52 56 56 57 61 67 67 71 78 78 66 39 33 33 30
4 3 2 3 3 3 3 2 2 2 3 4 4 4 8 7 5 5 3 3 3 3 1 2 2 5 5 1 1 1 1 nan 2 2 4 nan 5 5 4 0 0 0 4 nan nan nan 0 0 0 nan nan nan nan nan nan nan nan nan nan nan nan nan 1 6 6 9 11 21 24 24 28 28 30 30 36 40 47 47 50 52 52 53 24 10 10 11
9 6 3 4 4 5 5 3 2 2 3 1 2 2 2 2 5 5 4 3 3 2 2 1 1 1 4 3 3 3 1 0 4 4 10 0 2 2 3 1 1 3 4 1 1 nan nan nan nan nan nan nan nan nan nan nan nan nan nan nan nan nan nan 1 1 0 2 5 8 8 15 15 20 20 26 30 34 34 39 41 41 44 38 6 6 10
8 7 5 5 5 5 6 4 3 3 1 2 2 2 2 1 1 1 3 1 1 0 0 0 0 0 0 3 1 1 1 nan 4 4 8 0 0 0 0 0 0 nan 0 0 0 1 nan nan nan nan nan nan nan nan nan nan nan nan nan nan nan nan nan nan nan nan nan nan nan nan 0 1 12 12 13 18 22 22 27 33 33 37 42 25 25 12
6 7 6 5 5 4 4 3 3 3 2 1 1 1 1 1 0 0 1 1 1 nan nan nan nan nan nan nan 0 0 0 nan 2 2 9 0 0 0 nan 0 0 1 0 1 1 nan 0 0 0 3 0 nan nan nan nan nan nan nan nan nan nan nan nan nan nan nan nan nan nan nan nan nan nan nan 2 9 15 15 22 29 29 33 39 44 44 34
7 6 5 3 3 4 3 3 2 2 1 0 0 0 0 0 0 0 0 nan nan 0 2 0 0 nan nan nan nan nan 1 nan 3 3 8 1 nan nan nan nan nan 0 0 1 1 1 0 1 1 3 2 0 nan nan nan nan nan nan nan nan nan nan nan nan nan nan nan nan nan nan nan nan nan nan 0 11 18 18 23 27 27 30 31 37 37 42
7 6 5 3 3 2 4 2 1 1 1 0 0 0 0 nan 0 0 0 1 1 1 1 4 4 1 3 nan nan nan 0 0 1 1 3 0 nan nan nan 0 0 2 nan 0 0 0 nan 1 1 2 0 0 nan nan nan nan nan nan nan nan nan nan nan nan nan nan nan nan nan nan nan 0 0 0 2 10 13 13 19 24 24 25 27 27 27 33
8 5 5 4 4 3 2 1 1 1 0 nan 0 0 0 nan 0 0 0 2 2 2 nan nan nan nan 4 7 1 1 0 nan nan nan 1 1 nan nan nan 0 0 2 1 nan nan nan 0 nan nan 0 0 nan 0 0 0 nan nan nan nan nan nan nan nan nan nan nan nan 0 2 2 2 0 nan nan 0 1 2 2 3 1 1 9 15 17 17 25
7 6 5 5 5 3 2 1 0 0 nan 0 0 0 nan 0 1 1 0 1 1 1 1 nan nan nan nan nan 5 5 5 2 nan nan nan nan nan nan nan 0 0 0 1 nan nan nan nan nan nan 0 0 nan 0 0 nan nan nan nan nan nan nan nan nan nan nan 0 nan nan 1 1 0 nan nan nan nan nan nan nan 0 nan nan 1 2 1 1 10
7 5 5 6 6 4 1 1 0 0 nan 0 2 2 1 1 1 1 1 0 0 0 1 1 1 0 0 2 2 2 2 nan 0 0 nan nan nan nan nan nan nan 0 0 0 0 0 nan nan nan 0 1 nan nan nan nan nan nan nan 0 nan nan nan nan nan nan nan nan nan nan nan nan nan nan nan nan nan nan nan nan nan nan nan 0 nan nan nan
9 5 5 4 4 5 2 1 0 0 0 nan 0 0 0 0 0 0 0 0 0 1 1 0 0 1 1 0 nan nan nan nan nan nan nan nan nan nan nan nan nan nan nan nan nan nan 0 0 0 1 0 0 0 0 0 nan nan 0 2 nan nan nan nan nan nan nan nan nan nan nan nan 0 0 0 nan nan nan nan nan nan nan nan 0 nan nan nan
10 6 2 1 1 1 0 1 1 1 1 1 nan nan 1 nan nan nan 0 0 0 0 0 nan nan 1 1 0 nan nan nan nan nan nan nan nan nan nan nan nan nan nan nan nan nan nan 0 0 0 1 0 nan nan nan nan nan nan nan 0 nan nan nan nan nan nan nan nan nan nan nan 2 nan nan nan nan nan nan nan nan nan nan 0 1 nan nan nan
6 4 1 1 1 0 0 2 2 2 1 0 nan nan 0 0 0 0 0 0 0 1 0 0 0 1 1 0 nan nan nan nan nan nan nan nan nan nan nan nan nan nan nan nan nan 0 2 2 2 0 0 nan nan nan 0 nan nan nan nan nan nan 0 nan nan nan nan nan nan nan nan nan nan nan nan nan nan nan nan nan 0 0 5 4 nan nan nan
2 1 2 1 1 1 1 2 0 0 nan nan nan nan nan 1 1 1 0 0 0 2 1 1 1 2 2 0 nan nan nan nan nan nan nan nan nan nan nan 0 0 1 0 nan nan 0 1 1 1 0 nan nan nan nan nan nan nan nan nan nan nan nan nan nan nan nan nan nan nan nan nan nan nan nan 0 nan nan nan nan nan nan nan 1 0 0 0
2 2 3 1 1 1 0 nan nan nan nan nan nan nan nan 1 1 1 nan 1 1 2 1 1 1 1 nan nan nan nan nan nan nan nan nan nan 5 5 3 0 0 nan 0 nan nan nan 0 0 0 nan nan nan nan nan nan nan nan nan nan nan nan nan nan nan nan nan nan nan nan nan nan nan nan nan 0 0 0 0 nan nan nan nan nan nan nan 0
3 3 2 1 1 1 1 0 0 0 nan 0 nan nan nan nan nan nan 0 0 0 1 1 2 2 nan nan 0 nan nan nan nan nan nan nan nan 0 0 0 nan nan nan nan nan nan nan nan nan nan 0 0 nan nan nan nan nan nan nan nan nan nan nan nan nan nan nan nan nan nan nan nan nan nan nan nan 2 3 3 5 6 6 nan 0 0 0 1
2 1 1 0 0 0 nan 0 0 0 nan 0 nan nan nan 0 1 1 0 0 0 nan 0 1 1 nan nan nan nan nan nan 0 nan nan nan nan nan nan nan nan nan 0 nan nan nan nan 0 nan nan 1 0 nan nan nan nan nan nan nan nan nan nan nan nan nan nan nan nan nan nan nan nan 0 nan nan 0 0 3 3 3 3 3 2 2 2 2 4
1 0 nan 0 0 0 nan 0 nan nan 0 1 0 0 nan 0 1 1 1 1 1 1 2 0 0 0 nan nan nan nan 0 0 0 0 0 nan nan nan nan nan nan nan 1 1 1 2 0 nan nan nan 0 nan nan nan nan nan nan nan nan nan nan nan nan nan nan nan nan nan nan nan nan nan 0 0 0 1 1 1 1 0 0 0 5 12 12 8
3 0 0 1 1 1 0 nan nan nan 0 0 0 0 nan 1 8 8 1 0 0 0 0 0 0 0 nan nan nan nan 0 0 0 0 nan nan nan nan nan nan nan nan nan 0 0 nan nan nan nan nan nan nan nan nan nan nan nan nan nan nan nan nan nan nan nan nan nan nan nan nan nan nan nan nan nan nan 0 0 0 nan nan nan 1 5 5 3
2 0 1 0 0 1 0 nan nan nan 0 0 nan nan nan nan nan nan nan 0 0 0 nan nan nan nan nan nan nan nan nan nan 0 0 nan nan nan nan nan 0 0 0 1 nan nan nan nan nan nan nan nan nan nan nan nan nan nan 0 0 nan nan nan nan nan nan nan nan nan 0 0 0 nan nan nan nan nan 0 0 0 nan nan nan nan nan nan 0
2 2 0 0 0 0 0 0 nan nan nan nan 0 0 nan nan nan nan nan nan nan nan nan nan nan nan nan nan 0 0 nan nan nan nan nan nan nan nan nan 0 0 1 1 0 0 nan nan nan nan nan nan nan nan nan nan 0 0 1 1 0 0 nan nan nan nan nan 1 0 0 0 0 0 0 0 nan 0 1 1 0 nan nan nan nan nan nan 1